• en France
  • Liste des pays
  • À 7 jours
  • Température de l'eau
  • Carte satellitaire
  • Carte météo
  • Widgets météo
  • user-avatar
    Se connecter

    Météo par heure à Budapest

    Ce jour, 17 Juillet, Mardi

    Heure Température Précipitation Vent Pression Humidité
    00:00 +22°C° 0,4 mm 1 m/s 748 mmHg 66%
    01:00 +20°C° 0,4 mm 2 m/s 748 mmHg 70%
    02:00 +20°C° 0,3 mm 2 m/s 748 mmHg 73%
    03:00 +20°C° 0,3 mm 2 m/s 748 mmHg 76%
    04:00 +19°C° 0,3 mm 2 m/s 748 mmHg 78%
    05:00 +20°C° 0 mm 2 m/s 748 mmHg 75%
    06:00 +21°C° 0 mm 3 m/s 748 mmHg 73%
    07:00 +24°C° 0 mm 3 m/s 748 mmHg 70%
    08:00 +25°C° 0 mm 4 m/s 748 mmHg 63%
    09:00 +27°C° 0 mm 5 m/s 748 mmHg 56%
    10:00 +28°C° 0 mm 5 m/s 747 mmHg 48%
    11:00 +29°C° 0 mm 6 m/s 747 mmHg 46%
    12:00 +30°C° 0 mm 6 m/s 747 mmHg 43%
    13:00 +32°C° 0 mm 6 m/s 747 mmHg 41%
    14:00 +30°C° 0 mm 6 m/s 747 mmHg 42%
    15:00 +30°C° 0 mm 7 m/s 747 mmHg 42%
    16:00 +30°C° 0 mm 7 m/s 747 mmHg 43%
    17:00 +28°C° 0 mm 6 m/s 747 mmHg 48%
    18:00 +27°C° 0 mm 6 m/s 747 mmHg 54%
    19:00 +24°C° 0 mm 6 m/s 747 mmHg 59%
    20:00 +24°C° 0 mm 6 m/s 747 mmHg 62%
    21:00 +23°C° 0 mm 6 m/s 748 mmHg 64%
    22:00 +22°C° 0 mm 6 m/s 748 mmHg 67%
    23:00 +22°C° 0 mm 6 m/s 748 mmHg 68%

    Demain, 18 Juillet, Mercredi

    Heure Température Précipitation Vent Pression Humidité
    00:00 +21°C° 0 mm 6 m/s 748 mmHg 68%
    01:00 +21°C° 0 mm 6 m/s 748 mmHg 69%
    02:00 +21°C° 0 mm 6 m/s 748 mmHg 69%
    03:00 +21°C° 0 mm 6 m/s 748 mmHg 69%
    04:00 +20°C° 0 mm 6 m/s 748 mmHg 70%
    05:00 +21°C° 0 mm 7 m/s 748 mmHg 68%
    06:00 +22°C° 0 mm 8 m/s 748 mmHg 66%
    07:00 +22°C° 0 mm 8 m/s 748 mmHg 65%
    08:00 +23°C° 0 mm 8 m/s 748 mmHg 63%
    09:00 +24°C° 0 mm 8 m/s 748 mmHg 61%
    10:00 +24°C° 0 mm 8 m/s 748 mmHg 60%
    11:00 +24°C° 0 mm 8 m/s 748 mmHg 60%
    12:00 +26°C° 0 mm 8 m/s 748 mmHg 60%
    13:00 +26°C° 0 mm 8 m/s 748 mmHg 61%
    14:00 +26°C° 0,1 mm 8 m/s 748 mmHg 62%
    15:00 +26°C° 0,1 mm 7 m/s 748 mmHg 63%
    16:00 +26°C° 0,1 mm 7 m/s 748 mmHg 65%
    17:00 +24°C° 0 mm 6 m/s 748 mmHg 66%
    18:00 +24°C° 0 mm 6 m/s 749 mmHg 68%
    19:00 +23°C° 0 mm 5 m/s 749 mmHg 70%
    20:00 +23°C° 0 mm 5 m/s 749 mmHg 71%
    21:00 +22°C° 0 mm 5 m/s 749 mmHg 72%
    22:00 +22°C° 0 mm 5 m/s 749 mmHg 74%
    23:00 +22°C° 0 mm 5 m/s 749 mmHg 75%

    Après-demain, 19 Juillet, Jeudi

    Heure Température Précipitation Vent Pression Humidité
    00:00 +21°C° 0 mm 5 m/s 749 mmHg 77%
    01:00 +21°C° 0 mm 5 m/s 749 mmHg 79%
    02:00 +21°C° 0 mm 5 m/s 749 mmHg 79%
    03:00 +21°C° 0 mm 5 m/s 749 mmHg 78%
    04:00 +21°C° 0 mm 5 m/s 749 mmHg 78%
    05:00 +21°C° 0 mm 5 m/s 749 mmHg 75%
    06:00 +22°C° 0 mm 6 m/s 750 mmHg 72%
    07:00 +23°C° 0 mm 6 m/s 750 mmHg 68%
    08:00 +24°C° 0,1 mm 6 m/s 750 mmHg 66%
    09:00 +24°C° 0,1 mm 6 m/s 750 mmHg 63%
    10:00 +26°C° 0,1 mm 5 m/s 750 mmHg 61%
    11:00 +27°C° 0,1 mm 5 m/s 750 mmHg 59%
    12:00 +28°C° 0,1 mm 5 m/s 750 mmHg 57%
    13:00 +29°C° 0,1 mm 5 m/s 750 mmHg 55%
    14:00 +29°C° 0,1 mm 5 m/s 750 mmHg 55%
    15:00 +29°C° 0,1 mm 5 m/s 750 mmHg 55%
    16:00 +29°C° 0,1 mm 5 m/s 750 mmHg 55%
    17:00 +28°C° 0 mm 4 m/s 750 mmHg 59%
    18:00 +26°C° 0 mm 3 m/s 750 mmHg 63%
    19:00 +25°C° 0 mm 3 m/s 750 mmHg 68%
    20:00 +24°C° 0 mm 3 m/s 751 mmHg 70%
    21:00 +22°C° 0 mm 3 m/s 751 mmHg 73%
    22:00 +21°C° 0 mm 2 m/s 751 mmHg 76%
    23:00 +21°C° 0 mm 2 m/s 751 mmHg 78%

    20 Juillet, Vendredi

    Heure Température Précipitation Vent Pression Humidité
    00:00 +20°C° 0 mm 3 m/s 751 mmHg 79%
    01:00 +20°C° 0 mm 3 m/s 751 mmHg 81%
    02:00 +19°C° 0 mm 2 m/s 751 mmHg 83%
    03:00 +19°C° 0 mm 2 m/s 751 mmHg 84%
    04:00 +19°C° 0 mm 2 m/s 751 mmHg 86%
    05:00 +20°C° 0 mm 3 m/s 751 mmHg 80%
    06:00 +21°C° 0 mm 3 m/s 751 mmHg 75%
    07:00 +24°C° 0 mm 3 m/s 752 mmHg 70%
    08:00 +25°C° 0 mm 3 m/s 752 mmHg 62%
    09:00 +27°C° 0 mm 4 m/s 752 mmHg 55%
    10:00 +29°C° 0 mm 4 m/s 752 mmHg 48%
    11:00 +30°C° 0 mm 4 m/s 751 mmHg 45%
    12:00 +32°C° 0 mm 4 m/s 751 mmHg 41%
    13:00 +33°C° 0 mm 4 m/s 751 mmHg 37%
    14:00 +33°C° 0 mm 4 m/s 750 mmHg 37%
    15:00 +33°C° 0 mm 4 m/s 750 mmHg 37%
    16:00 +33°C° 0 mm 4 m/s 750 mmHg 36%
    17:00 +30°C° 0 mm 3 m/s 750 mmHg 42%
    18:00 +29°C° 0 mm 3 m/s 750 mmHg 48%
    19:00 +27°C° 0 mm 2 m/s 750 mmHg 53%
    20:00 +26°C° 0 mm 2 m/s 750 mmHg 57%
    21:00 +25°C° 0 mm 2 m/s 750 mmHg 60%
    22:00 +24°C° 0 mm 1 m/s 750 mmHg 64%
    23:00 +23°C° 0 mm 1 m/s 750 mmHg 67%

    21 Juillet, Samedi

    Heure Température Précipitation Vent Pression Humidité
    00:00 +22°C° 0 mm 1 m/s 750 mmHg 71%
    01:00 +22°C° 0 mm 1 m/s 750 mmHg 74%
    02:00 +22°C° 0 mm 1 m/s 750 mmHg 76%
    03:00 +21°C° 0 mm 1 m/s 750 mmHg 78%
    04:00 +21°C° 0 mm 1 m/s 750 mmHg 80%
    05:00 +22°C° 0 mm 1 m/s 750 mmHg 76%
    06:00 +24°C° 0 mm 1 m/s 750 mmHg 72%
    07:00 +25°C° 0 mm 2 m/s 750 mmHg 68%
    08:00 +27°C° 0,1 mm 2 m/s 750 mmHg 62%
    09:00 +28°C° 0,1 mm 2 m/s 749 mmHg 55%
    10:00 +30°C° 0,1 mm 2 m/s 749 mmHg 49%
    11:00 +31°C° 0,1 mm 3 m/s 749 mmHg 45%
    12:00 +34°C° 0,1 mm 3 m/s 748 mmHg 41%
    13:00 +35°C° 0,1 mm 3 m/s 748 mmHg 37%
    14:00 +34°C° 0 mm 3 m/s 747 mmHg 39%
    15:00 +34°C° 0 mm 3 m/s 747 mmHg 41%
    16:00 +34°C° 0 mm 3 m/s 747 mmHg 42%
    17:00 +33°C° 0 mm 3 m/s 746 mmHg 46%
    18:00 +30°C° 0 mm 3 m/s 746 mmHg 50%
    19:00 +29°C° 0 mm 3 m/s 746 mmHg 54%
    20:00 +27°C° 2 mm 3 m/s 746 mmHg 63%
    21:00 +25°C° 2 mm 4 m/s 746 mmHg 72%
    22:00 +22°C° 2 mm 5 m/s 746 mmHg 81%
    23:00 +22°C° 1,3 mm 4 m/s 746 mmHg 84%

    22 Juillet, Dimanche

    Heure Température Précipitation Vent Pression Humidité
    00:00 +21°C° 1,3 mm 4 m/s 746 mmHg 87%
    01:00 +20°C° 1,3 mm 3 m/s 747 mmHg 90%
    02:00 +20°C° 0 mm 3 m/s 746 mmHg 90%
    03:00 +20°C° 0 mm 3 m/s 746 mmHg 90%
    04:00 +20°C° 0 mm 4 m/s 746 mmHg 90%
    05:00 +20°C° 0,2 mm 4 m/s 746 mmHg 88%
    06:00 +20°C° 0,2 mm 5 m/s 746 mmHg 86%
    07:00 +21°C° 0,2 mm 5 m/s 746 mmHg 84%
    08:00 +21°C° 0,8 mm 5 m/s 746 mmHg 83%
    09:00 +21°C° 0,8 mm 5 m/s 746 mmHg 83%
    10:00 +21°C° 0,8 mm 5 m/s 746 mmHg 83%
    11:00 +21°C° 0,6 mm 6 m/s 746 mmHg 82%
    12:00 +22°C° 0,6 mm 6 m/s 746 mmHg 81%
    13:00 +22°C° 0,6 mm 7 m/s 746 mmHg 79%
    14:00 +22°C° 0,3 mm 7 m/s 746 mmHg 76%
    15:00 +23°C° 0,3 mm 7 m/s 746 mmHg 73%
    16:00 +23°C° 0,3 mm 8 m/s 746 mmHg 70%
    17:00 +23°C° 0,1 mm 7 m/s 746 mmHg 72%
    18:00 +22°C° 0,1 mm 7 m/s 746 mmHg 74%
    19:00 +21°C° 0,1 mm 7 m/s 746 mmHg 75%
    20:00 +20°C° 0 mm 7 m/s 746 mmHg 76%
    21:00 +20°C° 0 mm 7 m/s 747 mmHg 77%
    22:00 +18°C° 0 mm 7 m/s 747 mmHg 78%
    23:00 +18°C° 0,1 mm 7 m/s 747 mmHg 80%
    Voir plus